www.pogodaiklimat.ru

Погода и климат >> Архив погоды >> Украина >> Бобринец


ПОГОДА в Бобринце

  • Прогноз погоды в Бобринце
  • Монитор погоды в Бобринце

АРХИВ ПОГОДЫ в Бобринце

Время (UTC), дата Ветер
(напр.,м/с)
 
Видим.   Явления Облачность Т
(С)
Тd
(С)
f
(%)
Тe
(С)
Тes
(С)
Комфортность P
(гПа)
Po
(гПа)
Тmin
(С)
Tmax
(С)
R
(мм)
R24
(мм)
S
(см)
15 20.05 В 8 20 км 8/8 1050 м
[Cu med, cong]
+26.0 +10.2 37 +27 +27 жарко 1014.0 997.6
18 20.05 ЮВ 4 20 км 6/0
[Ci]
+23.1 +10.5 45 +25 +25 комфорт 1013.0 996.5 +28.1
21 20.05 ЮВ 4 50 км 3/0
[Ci ing]
+19.3 +12.3 64 +20 +20 1014.0 997.3
00 21.05 В 2 50 км 9/0
[Ci sp]
+15.4 +12.0 80 +15 +15 1014.0 997.0
03 21.05 ЮВ 4 20 км 9/0
[Ac und]
+16.2 +12.9 81 +15 +15 1014.0 997.1
06 21.05 ЮВ 6 20 км 9/9 660 м
[Cb calv]
+18.8 +15.1 79 +19 +19 1013.0 996.3 +14.5
09 21.05 ЮВ 6 20 км 8/4 1000 м
[Cu med, cong Ci ing]
+22.8 +13.6 56 +26 +26 жарко 1013.0 996.5
12 21.05 Ю 5 20 км 8/4 600 м
[Cb calv Ci ing]
+24.6 +12.5 47 +26 +26 жарко 1012.0 995.6
15 21.05 Ю 5 20 км 4/0
[Ci fib]
+25.2 +9.1 36 +26 +27 жарко 1011.0 994.6
18 21.05 ЮВ 1 20 км 6/0
[Ac trans]
+21.7 +9.2 45 +23 +23 комфорт 1012.0 995.4 +26.5
21 21.05 ЮЗ 2 50 км 4/0
[Ac trans]
+18.5 +12.9 70 +20 +20 1012.0 995.3
00 22.05 штиль 0 50 км 8/0
[Cs]
+15.1 +12.0 82 +15 +15 1011.0 994.1
03 22.05 штиль 0 4600 м дымка 9/6 930 м
[Cb calv Ac cuf Ci ing]
+13.1 +11.8 92 +13 +13 1011.0 993.9
06 22.05 СВ 1 20 км 10/6 870 м
[Cb calv Ac cuf Cs]
+16.5 +13.6 83 +17 +17 1010.0 993.2 +12.7
09 22.05 ЮЗ 1 4900 м гроза, ливневой дождь 10/8 930 м
[Cb cap Ac As]
+15.2 +13.4 89 +16 +16 1009.0 992.1
12 22.05 В 1 8000 м слаб. ливневой дождь {гроза} 10/6 900 м
[Cb calv Ac As]
+15.4 +13.2 87 +16 +16 1009.0 992.1 19
15 22.05 ЮВ 2 20 км {ливн. осадки} 10/0
[Ac As]
+14.8 +11.9 83 +14 +14 1009.0 992.1
18 22.05 ЮЗ 2 7000 м слаб. ливневой дождь 10/9 700 м
[Cb calv Ac As]
+14.5 +12.4 87 +14 +14 1010.0 993.1 +16.5 33
21 22.05 ЮЗ 1 4500 м слаб. ливневой дождь 10/9 660 м
[Cb calv Ac As]
+13.4 +11.6 89 +14 +14 1009.0 992.0
00 23.05 Ю 1 4400 м слаб. ливневой дождь 10/9 660 м
[Cb calv Ac As]
+13.6 +12.3 92 +14 +14 1009.0 992.0 8
03 23.05 ЮЗ 1 7000 м дымка {ливн. осадки} 10/0
[Ac As]
+13.7 +11.7 88 +14 +14 1008.0 991.0
06 23.05 ЮЗ 2 20 км {ливн. осадки} 8/0
[Ac trans Ci ing]
+16.6 +13.1 80 +17 +17 1008.0 991.2 +13.3 13
09 23.05 СЗ 2 20 км 6/6 1230 м
[Cu med, cong]
+20.3 +13.3 64 +23 +30 комфорт 1008.0 991.4
12 23.05 СЗ 2 20 км 8/8 1200 м
[Cu med, cong Ci ing]
+21.6 +14.5 64 +25 +25 комфорт 1008.0 991.5
15 23.05 СЗ 2 20 км 6/4 600 м
[Cu med, cong Ci ing]
+22.6 +13.4 56 +26 +27 жарко 1008.0 991.6
18 23.05 штиль 0 20 км 6/0
[Ci ing]
+18.7 +13.3 71 +19 +19 1008.0 991.3 +23.7
21 23.05 штиль 0 7000 м дымка ясно +15.1 +13.0 87 +15 +15 1009.0 992.1
00 24.05 З 1 4500 м дымка ясно +13.2 +11.8 91 +13 +13 1009.0 992.0
03 24.05 штиль 0 4200 м дымка ясно +12.6 +12.0 96 +12 +13 1009.0 992.0
06 24.05 С 1 20 км 3/0
[Ci ing]
+20.2 +15.2 73 +24 +31 комфорт 1009.0 992.4 +11.9
09 24.05 В 4 20 км 6/3 1000 м
[Cu med, cong Cc]
+23.3 +12.6 51 +26 +31 жарко 1009.0 992.6
12 24.05 В 4 20 км 6/3 1000 м
[Cu med, cong Cc]
+24.1 +11.4 45 +26 +29 жарко 1008.0 991.6
15 24.05 Ю 2 20 км 9/3 1000 м
[Cu med, cong Cs]
+23.1 +12.1 50 +26 +26 жарко 1007.0 990.6
18 24.05 штиль 0 20 км 3/0
[Ci ing]
+18.4 +14.8 80 +19 +19 1007.4 990.8 +25.5
21 24.05 штиль 0 8000 м дымка ясно +16.8 +14.6 87 +17 +17 1007.0 990.2
00 25.05 штиль 0 4800 м дымка 4/0
[Ci ing]
+15.5 +13.7 89 +15 +15 1007.0 990.2
03 25.05 ЮВ 3 4500 м дымка 9/9 720 м
[Cb calv]
+15.0 +13.4 90 +14 +14 1007.0 990.1
06 25.05 ЮВ 3 4900 м дымка {ливн. осадки} 8/8 840 м
[Cb calv]
+15.5 +13.7 89 +15 +15 1007.0 990.2 +14.9 0.5
09 25.05 ЮЗ 2 9000 м слаб. ливневой дождь {гроза} 10/6 840 м
[Cb calv Ac As]
+16.6 +14.2 86 +17 +17 1007.0 990.2
12 25.05 ЮЗ 2 20 км {гроза, ливн. осадки} 8/6 870 м
[Cb calv Ci ing]
+21.0 +11.6 55 +24 +24 комфорт 1006.0 989.5 1
15 25.05 З 2 20 км {ливн. осадки} 9/6 1200 м
[Cu med, cong Ac trans Cs]
+20.8 +14.7 68 +24 +24 комфорт 1005.0 988.5
18 25.05 З 1 20 км {ливн. осадки} 9/0
[Ac lent Cs]
+18.3 +15.2 82 +20 +20 1006.0 989.4 +22.4 2
21 25.05 З 2 50 км ясно +16.4 +13.5 83 +17 +17 1007.0 990.2
00 26.05 З 3 5000 м дымка 3/0
[Ci ing]
+15.7 +13.9 89 +15 +15 1007.0 990.2
03 26.05 СЗ 2 4700 м дымка 8/0
[Ac lent Cc]
+15.9 +14.3 90 +16 +16 1008.0 991.2
06 26.05 СЗ 3 20 км 9/0
[Ac trans]
+18.7 +15.0 79 +20 +20 1010.0 993.3 +15.0
09 26.05 СЗ 5 20 км 8/6 1260 м
[Cu med, cong Ci ing]
+23.0 +11.7 49 +25 +25 комфорт 1010.0 993.5
12 26.05 СЗ 6 20 км 9/8 1320 м
[Cu med, cong Ci ing]
+25.2 +9.1 36 +26 +26 жарко 1011.0 994.6
15 26.05 СЗ 5 20 км 4/4 1000 м
[Cu hum]
+24.8 +8.3 35 +25 +27 комфорт 1011.0 994.6
18 26.05 З 1 20 км 6/3 1000 м
[Cu hum Ci ing]
+20.9 +10.1 50 +24 +24 комфорт 1013.0 996.4 +26.0
21 26.05 З 1 50 км ясно +16.6 +10.0 65 +18 +18 1015.0 998.1
00 27.05 СЗ 1 50 км ясно +13.6 +10.0 79 +14 +14 1016.0 998.9
03 27.05 штиль 0 20 км ясно +12.9 +9.3 79 +12 +13 1017.0 999.8
06 27.05 З 1 20 км ясно +21.7 +11.4 52 +24 +33 комфорт 1017.0 1000.3 +12.2
09 27.05 З 2 20 км 8/8 1020 м
[Cu med, cong]
+25.5 +11.3 41 +27 +27 жарко 1017.0 1000.6
12 27.05 Ю 3 20 км 8/8 1170 м
[Cu med, cong]
+27.2 +10.4 35 +28 +28 жарко 1017.0 1000.6

 

Местоположение метеостанции Бобринец (Кировоградская область, Украина): широта 48.07 долгота 32.15 высота над уровнем моря 143 м.

В архиве по умолчанию представлена погода в Бобринце за последнюю неделю. Архивные данные за месяц целиком и за предыдущие месяцы, начиная с января 2011 года, Вы можете получить, выбрав интересующий диапазон дат из раскрывающегося списка и нажав кнопку "Ввод!".


*Определитесь, кто Вы:
робот инопланетянин человек

Внимание! Время в таблицах - всемирное. Для получения местного времени необходимо прибавить поправку, которая равна 2 ч.

Смотрите также архив погоды в соседних городах и на ближайших метеорологических станциях:

Погода в Долинской (Кировоградская область, Украина) (46 км)
Погода в Кропивницком (Кировоградская область, Украина) (50 км)
Погода в Помошной (Кировоградская область, Украина) (58 км)
Погода в Баштанке (Николаевская область, Украина) (76 км)
Погода в Кривом Роге (Днепропетровская область, Украина) (80 км)
Погода в Знаменке (Кировоградская область, Украина) (82 км)
Погода в Вознесенске (Николаевская область, Украина) (83 км)
Погода в Новомиргороде (Кировоградская область, Украина) (88 км)
Погода в Первомайске (Николаевская область, Украина) (97 км)
Погода в Николаеве (Николаевская область, Украина) (117 км)

Пояснения к столбцам:

Ветер - указаны скорость ветра в м/с - средняя за 10 мин, порывы в срок и между сроками (в фигурных скобках) и направление, откуда дует ветер: С - северный, СВ - северо-восточный, В - восточный, ЮВ - юго-восточный, Ю - южный, ЮЗ - юго-западный, З - западный, СЗ - северо-западный.
Видимость - горизонтальная дальность видимости в метрах или километрах. При видимости от 1 до 10 км при отсутствии осадков обычно наблюдается дымка, при ухудшении видимости до 1 км и менее - туман. В сухую погоду видимость может ухудшаться дымом, пылью или мглою.
Явления - указаны атмосферные явления, наблюдавшиеся в срок или в последний час перед сроком; фигурными скобками обозначены явления, наблюдавшиеся между сроками (за 1-3 часа до срока); квадратными скобками обозначены град или гололедные отложения с указанием их диаметра в мм.
Облачность - указаны через наклонную черту общая и нижняя облачность в баллах и высота нижней границы облаков в метрах; квадратными скобками обозначены формы облаков: Ci - перистые, Cs - перисто-слоистые, Cc - перисто-кучевые, Ac - высококучевые, As - высокослоистые, Sc - слоисто-кучевые, Ns - слоисто-дождевые, Cu - кучевые, Cb - кучево-дождевые. Подробнее классификацию облаков см. в Атласе облаков (PDF).
T - Температура воздуха - температура, измеренная на высоте 2 м над землей.
Td - Температура точки росы - температура, при понижении до которой содержащийся в воздухе водяной пар достигнет насыщения.
f - Относительная влажность воздуха - влажноcть воздуха, измеренная на высоте 2 м над землей.
Te - Эффективная температура - температура, которую ощущает одетый по сезону человек в тени. Характеристика душности погоды. При расчете учитывается влияние влажности воздуха и скорости ветра на теплоощущения человека.
Tes - Эффективная температура на солнце - температура, которую ощущает человек, с поправкой на солнечный нагрев. Характеристика знойности погоды. Зависит от высоты солнца над горизонтом, облачности и скорости ветра. Ночью, в пасмурную погоду, а также при ветре 12 м/с и более поправка равна нулю.
P - Атмосферное давление - приведенное к уровню моря атмосферное давление.
Po - Атмосферное давление - измеренное на уровне метеостанции атмосферное давление.
Tmin - Минимальная температура - минимум температуры воздуха на высоте 2 м над землей.
Tmax - Максимальная температура - максимум температуры воздуха на высоте 2 м над землей.
R - Количество осадков - Количество выпавших осадков за период времени, мм. При наведении курсора мыши на число - период времени, за который выпало указанное количество осадков.
R24 - Количество осадков - Количество выпавших осадков за 24 часа, мм.
S - Снежный покров - Высота снежного покрова, см. При наведении курсора мыши на число - состояние снежного покрова и степень покрытия местности в баллах.